Location: Homewood
(41.1836°S, 175.9581°E)
Time: 00:58:39
(UTC+00:00)

Cosmos 1607 - Pass Details

Date: 22 July 2024
Orbit: 929 x 973 km, 65.0° (Epoch: 22 May)

Event Time Altitude Azimuth Distance (km) Brightness Sun altitude
Exits shadow 16:07:25 13° 164° (SSE) 2,434 6.2 -38.3°
Maximum altitude 16:08:46 14° 150° (SSE) 2,379 6.3 -38.0°
Drops below altitude 10° 16:12:01 10° 118° (ESE) 2,684 6.9 -37.4°
Sets 16:16:00 0° 94° (E) 3,633 8.0 -36.7°
